Overview Statistics Trail Chart Weather Telemetry Raw packets
 

This is the latest recevied weather packets stored in our database for station/object W5GMO. If no packets are shown the sender has not sent any weather packets the latest 10 day(s).

<< 86 87 88 89 90 91 92 >>
Time Temp. Humidity Pressure Rain* Wind** Luminosity Snow
1788004708 21.11° C 1% 1024 hPa 0 mm - 137 W/m² -
1788004403 21.11° C 1% 1023.9 hPa 0 mm - 122 W/m² -
1788004098 21.11° C 1% 1023.8 hPa 0 mm - 110 W/m² -
1788003796 21.11° C 1% 1023.8 hPa 0 mm - 96 W/m² -
1788003492 21.11° C 1% 1023.9 hPa 0 mm - 85 W/m² -
1788003192 20.56° C 1% 1023.8 hPa 0 mm - 55 W/m² -
1788002886 20.56° C 1% 1023.9 hPa 0 mm - 65 W/m² -
1788002582 20.56° C 1% 1023.7 hPa 0 mm - 57 W/m² -
1788002277 20.56° C 1% 1023.7 hPa 0 mm - 40 W/m² -
1788001976 20.56° C 1% 1023.8 hPa 0 mm - 41 W/m² -
1788001672 20.56° C 1% 1023.5 hPa 0 mm - 33 W/m² -
1788001371 20.56° C 1% 1023.6 hPa 0 mm - 27 W/m² -
1788001066 20.56° C 1% 1023.4 hPa 0 mm - 21 W/m² -
1788000762 20.56° C 1% 1023.2 hPa 0 mm - 16 W/m² -
1788000457 20.56° C 1% 1023.3 hPa 0 mm - 10 W/m² -
1788000157 20.56° C 1% 1023.3 hPa 0 mm - 7 W/m² -
1787999853 20.56° C 1% 1023.1 hPa 0 mm - 4 W/m² -
1787999550 20.56° C 1% 1023 hPa 0 mm - 2 W/m² -
1787999246 20.56° C 1% 1022.7 hPa 0 mm - 1 W/m² -
1787998940 20.56° C 1% 1022.6 hPa 0 mm - 0 W/m² -
1787998639 20.56° C 1% 1022.6 hPa 0 mm - 0 W/m² -
1787998338 20.56° C 1% 1022.5 hPa 0 mm - 0 W/m² -
1787998034 21.11° C 1% 1022.4 hPa 0 mm - 0 W/m² -
1787997732 21.11° C 1% 1022.3 hPa 0 mm - 0 W/m² -
1787997430 21.11° C 1% 1022.2 hPa 0 mm - 0 W/m² -

* Rain latest hour (hover to see other rain measurements)
** Current wind speed in m/s (hover to see current wind gust speed)